{"data":{"norad_id":42807,"epoch":"2026-09-19T01:58:42.935232Z","epoch_age_seconds":137998,"freshness":"FRESH","line1":"1 42807U 17039E   26262.08244138  .00000107  00000+0  31297-4 0  9992","line2":"2 42807  86.3975 314.4077 0002248  94.9692 265.1760 14.34218072483400","mean_motion":14.34218072,"eccentricity":0.0002248,"inclination_deg":86.3975,"raan_deg":314.4077,"arg_perigee_deg":94.9692,"mean_anomaly_deg":265.176,"bstar":3.1297e-5,"rev_number":48340,"period_min":100.40314148266,"perigee_km":776.05745877495,"apogee_km":779.2747078412,"semimajor_km":7155.8030833081,"source":"CELESTRAK","updated_at":"2026-09-20T09:00:36.322719Z"}}